Wetterdaten: Sonntag, 01.07.2012
Datum Zeit Temp. Auen Feucht Auen Luftdruck Regen Richtung Richtung Windben
01.07.2012 00:00 20,1 C 88 % 1008,1 hPa 0,0 mm W-NW 286 1,6 km/h (1 Bft)
01.07.2012 00:06 19,8 C 87 % 1008,1 hPa 0,0 mm W-SW 249 1,6 km/h (1 Bft)
01.07.2012 00:10 19,6 C 88 % 1008,1 hPa 0,0 mm W-SW 249 1,6 km/h (1 Bft)
01.07.2012 00:15 19,6 C 89 % 1008,1 hPa 0,0 mm W-SW 249 0,0 km/h (0 Bft)
01.07.2012 00:20 19,8 C 89 % 1008,0 hPa 0,0 mm W-SW 249 0,0 km/h (0 Bft)
01.07.2012 00:25 19,4 C 88 % 1008,0 hPa 0,0 mm W-SW 249 1,6 km/h (1 Bft)
01.07.2012 00:30 19,2 C 89 % 1007,9 hPa 0,0 mm W-SW 249 0,0 km/h (0 Bft)
01.07.2012 00:35 19,2 C 90 % 1007,9 hPa 0,0 mm W-SW 249 1,6 km/h (1 Bft)
01.07.2012 00:40 19,1 C 89 % 1007,9 hPa 0,0 mm W-SW 249 0,0 km/h (0 Bft)
01.07.2012 00:45 19,1 C 90 % 1008,0 hPa 0,0 mm SW 220 1,6 km/h (1 Bft)
01.07.2012 00:50 19,2 C 90 % 1007,9 hPa 0,0 mm SW 220 0,0 km/h (0 Bft)
01.07.2012 00:55 19,4 C 90 % 1007,8 hPa 0,0 mm SW 220 1,6 km/h (1 Bft)
01.07.2012 01:00 19,4 C 89 % 1007,8 hPa 0,0 mm SW 220 1,6 km/h (1 Bft)
01.07.2012 01:05 19,2 C 89 % 1007,8 hPa 0,0 mm SW 220 0,0 km/h (0 Bft)
01.07.2012 01:10 19,1 C 90 % 1007,9 hPa 0,0 mm SW 220 0,0 km/h (0 Bft)
01.07.2012 01:15 19,1 C 89 % 1007,9 hPa 0,0 mm SW 220 1,6 km/h (1 Bft)
01.07.2012 01:20 18,9 C 89 % 1007,9 hPa 0,0 mm SW 220 1,6 km/h (1 Bft)
01.07.2012 01:25 18,9 C 89 % 1007,9 hPa 0,0 mm SW 220 1,6 km/h (1 Bft)
01.07.2012 01:30 19,0 C 90 % 1007,8 hPa 0,0 mm SW 220 3,2 km/h (1 Bft)
01.07.2012 01:35 18,9 C 89 % 1007,8 hPa 0,0 mm W-NW 298 4,8 km/h (1 Bft)
01.07.2012 01:40 18,9 C 89 % 1007,7 hPa 0,0 mm W 272 4,8 km/h (1 Bft)
01.07.2012 01:45 19,1 C 90 % 1007,7 hPa 0,0 mm W 264 3,2 km/h (1 Bft)
01.07.2012 01:50 19,1 C 89 % 1007,7 hPa 0,0 mm W-SW 239 3,2 km/h (1 Bft)
01.07.2012 01:55 19,1 C 89 % 1007,7 hPa 0,0 mm W-SW 239 3,2 km/h (1 Bft)
01.07.2012 02:00 19,0 C 89 % 1007,7 hPa 0,0 mm W 279 3,2 km/h (1 Bft)
01.07.2012 02:05 18,8 C 89 % 1007,7 hPa 0,0 mm W-SW 254 4,8 km/h (1 Bft)
01.07.2012 02:10 18,8 C 89 % 1007,8 hPa 0,0 mm W 281 6,4 km/h (2 Bft)
01.07.2012 02:15 18,9 C 89 % 1007,7 hPa 0,0 mm W 269 4,8 km/h (1 Bft)
01.07.2012 02:20 19,1 C 89 % 1007,8 hPa 0,0 mm W 269 3,2 km/h (1 Bft)
01.07.2012 02:25 19,1 C 89 % 1008,0 hPa 0,0 mm W 269 6,4 km/h (2 Bft)
01.07.2012 02:30 19,3 C 88 % 1008,0 hPa 0,0 mm W 271 9,7 km/h (2 Bft)
01.07.2012 02:35 19,5 C 87 % 1008,0 hPa 0,0 mm W 278 4,8 km/h (1 Bft)
01.07.2012 02:40 19,7 C 86 % 1008,1 hPa 0,0 mm W 275 8,0 km/h (2 Bft)
01.07.2012 02:45 19,9 C 85 % 1007,9 hPa 0,0 mm W 263 8,0 km/h (2 Bft)
01.07.2012 02:50 20,3 C 83 % 1008,1 hPa 0,0 mm W 273 11,3 km/h (2 Bft)
01.07.2012 02:55 20,8 C 81 % 1008,2 hPa 0,0 mm W 267 11,3 km/h (2 Bft)
01.07.2012 03:00 21,1 C 79 % 1008,5 hPa 0,0 mm W 262 11,3 km/h (2 Bft)
01.07.2012 03:05 21,2 C 77 % 1008,5 hPa 0,0 mm W-SW 257 8,0 km/h (2 Bft)
01.07.2012 03:10 21,1 C 77 % 1008,8 hPa 0,0 mm W 260 4,8 km/h (1 Bft)
01.07.2012 03:15 20,9 C 77 % 1008,9 hPa 0,0 mm W 271 6,4 km/h (2 Bft)
01.07.2012 03:20 20,8 C 77 % 1009,2 hPa 0,0 mm W-SW 254 8,0 km/h (2 Bft)
01.07.2012 03:25 20,7 C 78 % 1009,6 hPa 0,0 mm W 261 11,3 km/h (2 Bft)
01.07.2012 03:30 20,7 C 79 % 1010,7 hPa 0,0 mm W-SW 252 14,5 km/h (3 Bft)
01.07.2012 03:35 21,1 C 82 % 1010,9 hPa 0,0 mm W-SW 245 19,3 km/h (3 Bft)
01.07.2012 03:40 21,8 C 83 % 1011,3 hPa 0,0 mm W 263 32,2 km/h (5 Bft)
01.07.2012 03:45 22,1 C 81 % 1011,8 hPa 0,0 mm W 275 33,8 km/h (5 Bft)
01.07.2012 03:50 22,1 C 79 % 1012,0 hPa 0,0 mm W 259 25,7 km/h (4 Bft)
01.07.2012 03:55 22,1 C 78 % 1012,0 hPa 0,0 mm W-SW 258 24,1 km/h (4 Bft)
01.07.2012 04:00 22,1 C 77 % 1012,1 hPa 0,0 mm W 275 29,0 km/h (5 Bft)
01.07.2012 04:05 21,9 C 75 % 1012,3 hPa 0,0 mm W 265 25,7 km/h (4 Bft)
01.07.2012 04:10 21,8 C 74 % 1012,6 hPa 0,0 mm W-SW 242 25,7 km/h (4 Bft)
01.07.2012 04:15 21,7 C 74 % 1012,8 hPa 0,0 mm W 266 19,3 km/h (3 Bft)
01.07.2012 04:20 21,5 C 71 % 1013,0 hPa 0,0 mm W 271 25,7 km/h (4 Bft)
01.07.2012 04:25 21,3 C 70 % 1013,2 hPa 0,0 mm W 265 24,1 km/h (4 Bft)
01.07.2012 04:30 21,2 C 71 % 1013,4 hPa 0,0 mm W-NW 286 14,5 km/h (3 Bft)
01.07.2012 04:35 21,1 C 71 % 1013,3 hPa 0,0 mm W 279 14,5 km/h (3 Bft)
01.07.2012 04:40 21,0 C 70 % 1013,4 hPa 0,0 mm W 264 14,5 km/h (3 Bft)
01.07.2012 04:45 21,0 C 71 % 1013,5 hPa 0,0 mm W-SW 249 9,7 km/h (2 Bft)
01.07.2012 04:50 20,9 C 71 % 1013,6 hPa 0,0 mm W-NW 290 8,0 km/h (2 Bft)
01.07.2012 04:55 20,8 C 71 % 1013,5 hPa 0,0 mm N 355 1,6 km/h (1 Bft)
01.07.2012 05:00 20,8 C 71 % 1013,6 hPa 0,0 mm N-NW 329 1,6 km/h (1 Bft)
01.07.2012 05:05 20,7 C 72 % 1013,6 hPa 0,0 mm W 270 4,8 km/h (1 Bft)
01.07.2012 05:10 20,6 C 72 % 1013,7 hPa 0,0 mm W-NW 293 3,2 km/h (1 Bft)
01.07.2012 05:15 20,3 C 73 % 1013,9 hPa 0,0 mm W-NW 293 0,0 km/h (0 Bft)
01.07.2012 05:20 20,3 C 73 % 1013,7 hPa 0,0 mm W-NW 292 3,2 km/h (1 Bft)
01.07.2012 05:25 20,3 C 74 % 1013,9 hPa 0,0 mm W 279 3,2 km/h (1 Bft)
01.07.2012 05:30 19,8 C 78 % 1013,9 hPa 0,0 mm NW 316 1,6 km/h (1 Bft)
01.07.2012 05:35 19,5 C 77 % 1013,7 hPa 0,0 mm NW 316 0,0 km/h (0 Bft)
01.07.2012 05:40 19,7 C 76 % 1013,8 hPa 0,0 mm NW 316 0,0 km/h (0 Bft)
01.07.2012 05:45 19,3 C 78 % 1013,7 hPa 0,0 mm NW 314 3,2 km/h (1 Bft)
01.07.2012 05:50 19,3 C 78 % 1013,8 hPa 0,0 mm W 263 3,2 km/h (1 Bft)
01.07.2012 05:55 19,3 C 79 % 1013,9 hPa 0,0 mm W 263 1,6 km/h (1 Bft)
01.07.2012 06:00 19,3 C 79 % 1013,9 hPa 0,0 mm W 275 3,2 km/h (1 Bft)
01.07.2012 06:05 19,6 C 77 % 1014,0 hPa 0,0 mm W 275 1,6 km/h (1 Bft)
01.07.2012 06:10 19,7 C 78 % 1014,0 hPa 0,0 mm W 275 3,2 km/h (1 Bft)
01.07.2012 06:15 19,2 C 80 % 1014,0 hPa 0,0 mm W 275 1,6 km/h (1 Bft)
01.07.2012 06:20 19,1 C 81 % 1014,0 hPa 0,0 mm W 275 0,0 km/h (0 Bft)
01.07.2012 06:25 19,5 C 79 % 1014,1 hPa 0,0 mm W 261 4,8 km/h (1 Bft)
01.07.2012 06:30 19,8 C 79 % 1014,2 hPa 0,0 mm W 275 4,8 km/h (1 Bft)
01.07.2012 06:35 19,8 C 78 % 1014,1 hPa 0,0 mm W 275 3,2 km/h (1 Bft)
01.07.2012 06:40 19,8 C 79 % 1014,1 hPa 0,0 mm W 275 3,2 km/h (1 Bft)
01.07.2012 06:45 19,8 C 80 % 1014,0 hPa 0,0 mm W 280 3,2 km/h (1 Bft)
01.07.2012 06:50 19,8 C 78 % 1013,9 hPa 0,0 mm W 280 0,0 km/h (0 Bft)
01.07.2012 06:55 19,5 C 83 % 1013,9 hPa 0,0 mm N-NW 346 3,2 km/h (1 Bft)
01.07.2012 07:00 19,5 C 80 % 1013,7 hPa 0,0 mm N 5 4,8 km/h (1 Bft)
01.07.2012 07:05 19,9 C 79 % 1013,9 hPa 0,0 mm W-SW 258 3,2 km/h (1 Bft)
01.07.2012 07:10 19,9 C 78 % 1013,7 hPa 0,0 mm W-SW 251 4,8 km/h (1 Bft)
01.07.2012 07:15 20,0 C 80 % 1013,8 hPa 0,0 mm W-SW 251 1,6 km/h (1 Bft)
01.07.2012 07:20 19,6 C 82 % 1013,7 hPa 0,0 mm W-SW 251 3,2 km/h (1 Bft)
01.07.2012 07:25 19,4 C 82 % 1013,6 hPa 0,0 mm S 170 4,8 km/h (1 Bft)
01.07.2012 07:30 19,6 C 81 % 1013,7 hPa 0,0 mm S 170 0,0 km/h (0 Bft)
01.07.2012 07:35 19,8 C 81 % 1013,6 hPa 0,0 mm S 170 0,0 km/h (0 Bft)
01.07.2012 07:40 19,9 C 79 % 1013,6 hPa 0,0 mm S 170 0,0 km/h (0 Bft)
01.07.2012 07:45 20,1 C 80 % 1013,5 hPa 0,0 mm O 88 1,6 km/h (1 Bft)
01.07.2012 07:50 20,2 C 82 % 1013,6 hPa 0,0 mm NO 50 3,2 km/h (1 Bft)
01.07.2012 07:55 20,4 C 79 % 1013,6 hPa 0,0 mm NO 50 0,0 km/h (0 Bft)
01.07.2012 08:00 20,6 C 77 % 1013,6 hPa 0,0 mm NO 50 0,0 km/h (0 Bft)
01.07.2012 08:05 20,7 C 80 % 1013,5 hPa 0,0 mm SO 132 3,2 km/h (1 Bft)
01.07.2012 08:10 20,8 C 78 % 1013,4 hPa 0,0 mm O 94 4,8 km/h (1 Bft)
01.07.2012 08:15 20,9 C 78 % 1013,3 hPa 0,0 mm O 92 4,8 km/h (1 Bft)
01.07.2012 08:20 21,3 C 79 % 1013,3 hPa 0,0 mm O-SO 112 4,8 km/h (1 Bft)
01.07.2012 08:25 21,6 C 76 % 1013,3 hPa 0,0 mm O-SO 123 8,0 km/h (2 Bft)
01.07.2012 08:30 21,7 C 74 % 1013,3 hPa 0,0 mm O-NO 78 8,0 km/h (2 Bft)
01.07.2012 08:35 21,9 C 73 % 1013,5 hPa 0,0 mm NO 42 4,8 km/h (1 Bft)
01.07.2012 08:40 22,2 C 72 % 1013,5 hPa 0,0 mm SO 143 4,8 km/h (1 Bft)
01.07.2012 08:45 22,3 C 69 % 1013,5 hPa 0,0 mm O-SO 118 4,8 km/h (1 Bft)
01.07.2012 08:50 22,4 C 69 % 1013,5 hPa 0,0 mm SO 145 4,8 km/h (1 Bft)
01.07.2012 08:55 22,7 C 70 % 1013,5 hPa 0,0 mm O-SO 103 8,0 km/h (2 Bft)
01.07.2012 09:00 22,9 C 68 % 1013,5 hPa 0,0 mm S-SO 157 8,0 km/h (2 Bft)
01.07.2012 09:05 23,1 C 71 % 1013,4 hPa 0,0 mm S-SO 150 8,0 km/h (2 Bft)
01.07.2012 09:10 23,0 C 68 % 1013,3 hPa 0,0 mm S-SO 163 9,7 km/h (2 Bft)
01.07.2012 09:15 23,1 C 71 % 1013,2 hPa 0,0 mm SO 142 9,7 km/h (2 Bft)
01.07.2012 09:20 23,2 C 66 % 1013,2 hPa 0,0 mm SO 138 11,3 km/h (2 Bft)
01.07.2012 09:25 23,4 C 70 % 1012,9 hPa 0,0 mm O-SO 109 9,7 km/h (2 Bft)
01.07.2012 09:30 23,6 C 68 % 1012,9 hPa 0,0 mm O 99 8,0 km/h (2 Bft)
01.07.2012 09:35 23,8 C 69 % 1012,8 hPa 0,0 mm O-SO 108 9,7 km/h (2 Bft)
01.07.2012 09:40 23,9 C 71 % 1012,8 hPa 0,0 mm SO 126 14,5 km/h (3 Bft)
01.07.2012 09:45 24,0 C 68 % 1012,8 hPa 0,0 mm O-SO 115 12,9 km/h (3 Bft)
01.07.2012 09:50 24,2 C 67 % 1012,7 hPa 0,0 mm O 101 11,3 km/h (2 Bft)
01.07.2012 09:55 24,2 C 65 % 1012,6 hPa 0,0 mm O 92 12,9 km/h (3 Bft)
01.07.2012 10:00 24,2 C 68 % 1012,7 hPa 0,0 mm O-SO 111 12,9 km/h (3 Bft)
01.07.2012 10:05 24,2 C 66 % 1012,7 hPa 0,0 mm N-NO 22 16,1 km/h (3 Bft)
01.07.2012 10:10 24,4 C 67 % 1012,5 hPa 0,0 mm O-NO 74 12,9 km/h (3 Bft)
01.07.2012 10:15 24,4 C 66 % 1012,5 hPa 0,0 mm O 97 16,1 km/h (3 Bft)
01.07.2012 10:20 24,4 C 66 % 1012,5 hPa 0,0 mm O-NO 60 14,5 km/h (3 Bft)
01.07.2012 10:25 24,8 C 64 % 1012,5 hPa 0,0 mm O-SO 107 14,5 km/h (3 Bft)
01.07.2012 10:30 24,9 C 66 % 1012,5 hPa 0,0 mm O 80 17,7 km/h (3 Bft)
01.07.2012 10:35 25,1 C 64 % 1012,5 hPa 0,0 mm O-NO 71 16,1 km/h (3 Bft)
01.07.2012 10:40 25,1 C 64 % 1012,4 hPa 0,0 mm O 97 16,1 km/h (3 Bft)
01.07.2012 10:45 25,3 C 63 % 1012,3 hPa 0,0 mm O-SO 105 16,1 km/h (3 Bft)
01.07.2012 10:50 25,1 C 61 % 1012,2 hPa 0,0 mm O-SO 117 16,1 km/h (3 Bft)
01.07.2012 10:55 25,4 C 63 % 1012,1 hPa 0,0 mm O-NO 63 14,5 km/h (3 Bft)
01.07.2012 11:00 25,5 C 63 % 1012,1 hPa 0,0 mm O-SO 113 12,9 km/h (3 Bft)
01.07.2012 11:05 25,9 C 61 % 1012,1 hPa 0,0 mm O 94 11,3 km/h (2 Bft)
01.07.2012 11:10 25,8 C 62 % 1012,0 hPa 0,0 mm SO 144 9,7 km/h (2 Bft)
01.07.2012 11:15 25,9 C 61 % 1011,9 hPa 0,0 mm O 88 11,3 km/h (2 Bft)
01.07.2012 11:20 26,1 C 61 % 1011,7 hPa 0,0 mm NO 55 14,5 km/h (3 Bft)
01.07.2012 11:25 26,2 C 65 % 1011,7 hPa 0,0 mm O-SO 123 12,9 km/h (3 Bft)
01.07.2012 11:30 26,4 C 61 % 1011,7 hPa 0,0 mm O 87 12,9 km/h (3 Bft)
01.07.2012 11:35 26,4 C 61 % 1011,7 hPa 0,0 mm O 86 12,9 km/h (3 Bft)
01.07.2012 11:40 26,6 C 60 % 1011,8 hPa 0,0 mm O-SO 119 11,3 km/h (2 Bft)
01.07.2012 11:45 26,6 C 59 % 1011,7 hPa 0,0 mm O-SO 103 12,9 km/h (3 Bft)
01.07.2012 11:50 26,8 C 62 % 1011,7 hPa 0,0 mm NO 40 11,3 km/h (2 Bft)
01.07.2012 11:55 27,1 C 59 % 1011,6 hPa 0,0 mm O 85 11,3 km/h (2 Bft)
01.07.2012 12:00 27,2 C 61 % 1011,6 hPa 0,0 mm O 92 9,7 km/h (2 Bft)
01.07.2012 12:05 27,1 C 57 % 1011,5 hPa 0,0 mm SO 128 12,9 km/h (3 Bft)
01.07.2012 12:10 26,9 C 59 % 1011,5 hPa 0,0 mm SO 137 12,9 km/h (3 Bft)
01.07.2012 12:15 27,2 C 60 % 1011,5 hPa 0,0 mm SO 128 12,9 km/h (3 Bft)
01.07.2012 12:20 27,4 C 59 % 1011,5 hPa 0,0 mm O 93 12,9 km/h (3 Bft)
01.07.2012 12:25 27,5 C 55 % 1011,5 hPa 0,0 mm O 94 11,3 km/h (2 Bft)
01.07.2012 12:30 27,7 C 54 % 1011,6 hPa 0,0 mm O 96 8,0 km/h (2 Bft)
01.07.2012 12:35 27,8 C 59 % 1011,7 hPa 0,0 mm O-SO 105 11,3 km/h (2 Bft)
01.07.2012 12:40 27,8 C 58 % 1011,6 hPa 0,0 mm O-SO 108 4,8 km/h (1 Bft)
01.07.2012 12:45 28,0 C 57 % 1011,4 hPa 0,0 mm O 88 16,1 km/h (3 Bft)
01.07.2012 12:50 28,2 C 58 % 1011,4 hPa 0,0 mm O 85 12,9 km/h (3 Bft)
01.07.2012 12:55 27,9 C 56 % 1011,4 hPa 0,0 mm O-SO 117 11,3 km/h (2 Bft)
01.07.2012 13:00 28,2 C 54 % 1011,3 hPa 0,0 mm O-NO 72 22,5 km/h (4 Bft)
01.07.2012 13:05 28,6 C 58 % 1011,3 hPa 0,0 mm O 95 11,3 km/h (2 Bft)
01.07.2012 13:10 28,6 C 53 % 1011,1 hPa 0,0 mm O-NO 57 12,9 km/h (3 Bft)
01.07.2012 13:15 28,6 C 56 % 1011,1 hPa 0,0 mm SO 124 20,9 km/h (4 Bft)
01.07.2012 13:20 28,3 C 56 % 1010,8 hPa 0,0 mm O 90 17,7 km/h (3 Bft)
01.07.2012 13:25 28,2 C 56 % 1010,8 hPa 0,0 mm O-SO 120 19,3 km/h (3 Bft)
01.07.2012 13:30 28,2 C 54 % 1010,8 hPa 0,0 mm O-NO 71 16,1 km/h (3 Bft)
01.07.2012 13:35 28,4 C 57 % 1010,7 hPa 0,0 mm O-NO 61 17,7 km/h (3 Bft)
01.07.2012 13:40 28,5 C 56 % 1010,7 hPa 0,0 mm O 98 16,1 km/h (3 Bft)
01.07.2012 13:45 28,6 C 59 % 1010,8 hPa 0,0 mm NO 56 14,5 km/h (3 Bft)
01.07.2012 13:50 28,6 C 56 % 1010,8 hPa 0,0 mm O 82 14,5 km/h (3 Bft)
01.07.2012 13:55 28,7 C 56 % 1010,9 hPa 0,0 mm NO 56 12,9 km/h (3 Bft)
01.07.2012 14:00 28,9 C 56 % 1010,8 hPa 0,0 mm O-NO 73 14,5 km/h (3 Bft)
01.07.2012 14:05 28,6 C 56 % 1010,7 hPa 0,0 mm NO 54 14,5 km/h (3 Bft)
01.07.2012 14:10 28,6 C 57 % 1010,7 hPa 0,0 mm O 89 16,1 km/h (3 Bft)
01.07.2012 14:15 28,7 C 56 % 1010,7 hPa 0,0 mm N 5 14,5 km/h (3 Bft)
01.07.2012 14:20 28,8 C 58 % 1010,8 hPa 0,0 mm O 97 12,9 km/h (3 Bft)
01.07.2012 14:25 28,7 C 54 % 1010,8 hPa 0,0 mm N-NO 26 16,1 km/h (3 Bft)
01.07.2012 14:30 28,9 C 55 % 1010,8 hPa 0,0 mm O-SO 117 11,3 km/h (2 Bft)
01.07.2012 14:35 28,9 C 55 % 1010,8 hPa 0,0 mm O 91 14,5 km/h (3 Bft)
01.07.2012 14:40 28,9 C 55 % 1010,8 hPa 0,0 mm NO 36 12,9 km/h (3 Bft)
01.07.2012 14:45 28,8 C 55 % 1010,7 hPa 0,0 mm N-NO 24 12,9 km/h (3 Bft)
01.07.2012 14:50 28,7 C 53 % 1010,7 hPa 0,0 mm O 87 14,5 km/h (3 Bft)
01.07.2012 14:55 28,8 C 58 % 1010,6 hPa 0,0 mm O-SO 108 17,7 km/h (3 Bft)
01.07.2012 15:00 28,9 C 57 % 1010,6 hPa 0,0 mm O 91 14,5 km/h (3 Bft)
01.07.2012 15:05 28,9 C 55 % 1010,7 hPa 0,0 mm O 90 14,5 km/h (3 Bft)
01.07.2012 15:10 28,7 C 53 % 1010,6 hPa 0,0 mm O-NO 66 12,9 km/h (3 Bft)
01.07.2012 15:15 29,0 C 60 % 1010,6 hPa 0,0 mm O 88 11,3 km/h (2 Bft)
01.07.2012 15:20 28,9 C 56 % 1010,6 hPa 0,0 mm O 85 11,3 km/h (2 Bft)
01.07.2012 15:25 29,0 C 55 % 1010,5 hPa 0,0 mm N-NO 28 9,7 km/h (2 Bft)
01.07.2012 15:30 28,8 C 54 % 1010,5 hPa 0,0 mm O-SO 111 16,1 km/h (3 Bft)
01.07.2012 15:35 28,6 C 55 % 1010,6 hPa 0,0 mm NO 34 14,5 km/h (3 Bft)
01.07.2012 15:40 28,6 C 57 % 1010,3 hPa 0,0 mm O 85 12,9 km/h (3 Bft)
01.07.2012 15:45 28,7 C 54 % 1010,2 hPa 0,0 mm NO 56 14,5 km/h (3 Bft)
01.07.2012 15:50 28,7 C 56 % 1010,3 hPa 0,0 mm NO 42 11,3 km/h (2 Bft)
01.07.2012 15:55 28,7 C 57 % 1010,2 hPa 0,0 mm O 101 14,5 km/h (3 Bft)
01.07.2012 16:00 28,7 C 56 % 1010,3 hPa 0,0 mm O 82 16,1 km/h (3 Bft)
01.07.2012 16:05 28,7 C 55 % 1010,5 hPa 0,0 mm O-NO 68 11,3 km/h (2 Bft)
01.07.2012 16:10 28,3 C 55 % 1010,7 hPa 0,0 mm O-NO 58 4,8 km/h (1 Bft)
01.07.2012 16:15 28,2 C 56 % 1010,7 hPa 0,0 mm NO 36 4,8 km/h (1 Bft)
01.07.2012 16:20 27,9 C 57 % 1010,7 hPa 0,0 mm N 9 9,7 km/h (2 Bft)
01.07.2012 16:25 27,8 C 56 % 1010,9 hPa 0,0 mm N-NO 27 9,7 km/h (2 Bft)
01.07.2012 16:30 27,8 C 56 % 1011,1 hPa 0,0 mm W-SW 252 9,7 km/h (2 Bft)
01.07.2012 16:35 27,7 C 57 % 1011,2 hPa 0,0 mm N 360 9,7 km/h (2 Bft)
01.07.2012 16:40 27,5 C 56 % 1011,2 hPa 0,0 mm N 351 8,0 km/h (2 Bft)
01.07.2012 16:45 27,3 C 58 % 1011,3 hPa 0,0 mm N-NO 19 6,4 km/h (2 Bft)
01.07.2012 16:50 27,0 C 64 % 1011,5 hPa 0,0 mm N-NO 18 1,6 km/h (1 Bft)
01.07.2012 16:55 26,7 C 61 % 1011,6 hPa 0,0 mm N-NO 18 3,2 km/h (1 Bft)
01.07.2012 17:00 26,9 C 59 % 1011,7 hPa 0,0 mm W-SW 254 4,8 km/h (1 Bft)
01.07.2012 17:05 27,2 C 58 % 1011,9 hPa 0,0 mm W-NW 288 6,4 km/h (2 Bft)
01.07.2012 17:10 27,0 C 59 % 1012,2 hPa 0,0 mm W 263 24,1 km/h (4 Bft)
01.07.2012 17:15 26,4 C 60 % 1012,3 hPa 0,0 mm W 279 33,8 km/h (5 Bft)
01.07.2012 17:20 26,2 C 62 % 1012,0 hPa 0,0 mm W-SW 244 22,5 km/h (4 Bft)
01.07.2012 17:25 26,2 C 62 % 1011,6 hPa 0,0 mm W-SW 254 19,3 km/h (3 Bft)
01.07.2012 17:30 25,9 C 63 % 1011,5 hPa 0,0 mm W-SW 248 20,9 km/h (4 Bft)
01.07.2012 17:35 25,9 C 63 % 1010,9 hPa 0,0 mm W-NW 301 17,7 km/h (3 Bft)
01.07.2012 17:40 26,0 C 64 % 1011,1 hPa 0,0 mm W 279 17,7 km/h (3 Bft)
01.07.2012 17:45 25,8 C 67 % 1011,8 hPa 0,0 mm S 191 19,3 km/h (3 Bft)
01.07.2012 17:50 24,9 C 66 % 1012,5 hPa 0,0 mm W 273 20,9 km/h (4 Bft)
01.07.2012 17:55 24,3 C 67 % 1013,1 hPa 0,0 mm NW 323 20,9 km/h (4 Bft)
01.07.2012 18:00 24,2 C 67 % 1013,3 hPa 0,0 mm W-SW 256 14,5 km/h (3 Bft)
01.07.2012 18:05 24,0 C 67 % 1013,4 hPa 0,0 mm W 263 16,1 km/h (3 Bft)
01.07.2012 18:10 23,9 C 67 % 1013,1 hPa 0,0 mm W-NW 285 12,9 km/h (3 Bft)
01.07.2012 18:15 23,8 C 68 % 1013,0 hPa 0,0 mm W 263 9,7 km/h (2 Bft)
01.07.2012 18:20 23,7 C 70 % 1013,3 hPa 0,0 mm W-SW 257 11,3 km/h (2 Bft)
01.07.2012 18:25 23,5 C 72 % 1012,8 hPa 0,0 mm W-SW 245 12,9 km/h (3 Bft)
01.07.2012 18:30 23,1 C 76 % 1013,3 hPa 0,2 mm W-NW 284 12,9 km/h (3 Bft)
01.07.2012 18:35 22,2 C 79 % 1013,6 hPa 0,2 mm W-NW 298 11,3 km/h (2 Bft)
01.07.2012 18:40 21,8 C 82 % 1013,5 hPa 0,0 mm W-NW 293 6,4 km/h (2 Bft)
01.07.2012 18:45 21,8 C 83 % 1013,8 hPa 0,2 mm W 268 8,0 km/h (2 Bft)
01.07.2012 18:50 21,8 C 83 % 1013,9 hPa 0,0 mm W 261 14,5 km/h (3 Bft)
01.07.2012 18:55 21,8 C 82 % 1014,1 hPa 0,0 mm NW 310 11,3 km/h (2 Bft)
01.07.2012 19:00 21,7 C 83 % 1014,3 hPa 0,0 mm W-NW 284 11,3 km/h (2 Bft)
01.07.2012 19:05 21,7 C 83 % 1014,5 hPa 0,0 mm W 269 8,0 km/h (2 Bft)
01.07.2012 19:10 21,8 C 82 % 1014,7 hPa 0,0 mm W 270 14,5 km/h (3 Bft)
01.07.2012 19:15 21,9 C 80 % 1014,9 hPa 0,2 mm W 267 14,5 km/h (3 Bft)
01.07.2012 19:20 21,9 C 80 % 1014,8 hPa 0,0 mm W-NW 290 14,5 km/h (3 Bft)
01.07.2012 19:25 21,9 C 78 % 1014,9 hPa 0,0 mm W 265 17,7 km/h (3 Bft)
01.07.2012 19:30 21,8 C 78 % 1015,2 hPa 0,0 mm W 263 30,6 km/h (5 Bft)
01.07.2012 19:35 21,6 C 79 % 1015,4 hPa 0,0 mm W 267 19,3 km/h (3 Bft)
01.07.2012 19:40 21,5 C 80 % 1015,5 hPa 0,0 mm W-SW 254 19,3 km/h (3 Bft)
01.07.2012 19:45 21,3 C 80 % 1015,7 hPa 0,0 mm W 275 20,9 km/h (4 Bft)
01.07.2012 19:50 21,1 C 80 % 1015,9 hPa 0,0 mm W 280 20,9 km/h (4 Bft)
01.07.2012 19:55 20,9 C 81 % 1016,2 hPa 0,0 mm NW 309 20,9 km/h (4 Bft)
01.07.2012 20:00 20,8 C 81 % 1016,4 hPa 0,0 mm W 266 14,5 km/h (3 Bft)
01.07.2012 20:05 20,7 C 82 % 1016,5 hPa 0,0 mm W-SW 250 12,9 km/h (3 Bft)
01.07.2012 20:10 20,4 C 83 % 1016,6 hPa 0,0 mm W 266 16,1 km/h (3 Bft)
01.07.2012 20:15 20,2 C 84 % 1016,6 hPa 0,0 mm W 263 17,7 km/h (3 Bft)
01.07.2012 20:20 19,9 C 84 % 1016,7 hPa 0,0 mm W-SW 249 17,7 km/h (3 Bft)
01.07.2012 20:25 19,7 C 84 % 1017,1 hPa 0,0 mm W 261 17,7 km/h (3 Bft)
01.07.2012 20:30 19,5 C 85 % 1017,4 hPa 0,2 mm W-SW 255 16,1 km/h (3 Bft)
01.07.2012 20:35 19,3 C 85 % 1017,7 hPa 0,0 mm W 270 12,9 km/h (3 Bft)
01.07.2012 20:40 19,1 C 86 % 1017,8 hPa 0,0 mm W 269 12,9 km/h (3 Bft)
01.07.2012 20:45 18,8 C 85 % 1018,2 hPa 0,2 mm W 265 16,1 km/h (3 Bft)
01.07.2012 20:50 18,6 C 85 % 1018,3 hPa 0,0 mm W 259 9,7 km/h (2 Bft)
01.07.2012 20:55 18,5 C 84 % 1018,4 hPa 0,0 mm S-SO 159 12,9 km/h (3 Bft)
01.07.2012 21:00 18,4 C 83 % 1018,7 hPa 0,0 mm S-SW 209 20,9 km/h (4 Bft)
01.07.2012 21:05 18,3 C 83 % 1018,8 hPa 0,0 mm W-SW 250 24,1 km/h (4 Bft)
01.07.2012 21:10 18,1 C 85 % 1019,4 hPa 0,0 mm W 270 14,5 km/h (3 Bft)
01.07.2012 21:15 17,9 C 86 % 1019,6 hPa 0,2 mm W-NW 289 16,1 km/h (3 Bft)
01.07.2012 21:20 17,7 C 87 % 1019,9 hPa 0,0 mm W-SW 252 17,7 km/h (3 Bft)
01.07.2012 21:25 17,6 C 87 % 1020,0 hPa 0,0 mm W 264 16,1 km/h (3 Bft)
01.07.2012 21:30 17,4 C 87 % 1020,0 hPa 0,2 mm W 259 17,7 km/h (3 Bft)
01.07.2012 21:35 17,3 C 88 % 1020,2 hPa 0,0 mm W-SW 257 11,3 km/h (2 Bft)
01.07.2012 21:40 17,2 C 87 % 1020,4 hPa 0,0 mm W-NW 297 11,3 km/h (2 Bft)
01.07.2012 21:45 17,1 C 87 % 1020,6 hPa 0,0 mm W 277 9,7 km/h (2 Bft)
01.07.2012 21:50 17,0 C 87 % 1020,7 hPa 0,2 mm W-NW 284 8,0 km/h (2 Bft)
01.07.2012 21:55 17,0 C 87 % 1020,7 hPa 0,0 mm NW 306 6,4 km/h (2 Bft)
01.07.2012 22:00 17,0 C 87 % 1020,6 hPa 0,0 mm W-NW 283 3,2 km/h (1 Bft)
01.07.2012 22:05 17,1 C 87 % 1020,5 hPa 0,0 mm W-NW 283 1,6 km/h (1 Bft)
01.07.2012 22:10 17,1 C 87 % 1020,7 hPa 0,0 mm W 261 8,0 km/h (2 Bft)
01.07.2012 22:15 17,1 C 87 % 1020,8 hPa 0,0 mm W 264 6,4 km/h (2 Bft)
01.07.2012 22:20 17,0 C 86 % 1020,7 hPa 0,0 mm W-NW 299 6,4 km/h (2 Bft)
01.07.2012 22:25 17,0 C 86 % 1020,7 hPa 0,0 mm O 82 1,6 km/h (1 Bft)
01.07.2012 22:30 16,9 C 86 % 1020,6 hPa 0,0 mm NW 305 3,2 km/h (1 Bft)
01.07.2012 22:35 16,9 C 87 % 1020,4 hPa 0,0 mm N 5 4,8 km/h (1 Bft)
01.07.2012 22:40 16,9 C 88 % 1020,5 hPa 0,0 mm W 271 3,2 km/h (1 Bft)
01.07.2012 22:45 16,9 C 88 % 1020,5 hPa 0,0 mm W 272 4,8 km/h (1 Bft)
01.07.2012 22:50 17,1 C 87 % 1020,5 hPa 0,0 mm W 272 1,6 km/h (1 Bft)
01.07.2012 22:55 17,1 C 85 % 1020,6 hPa 0,0 mm W 272 1,6 km/h (1 Bft)
01.07.2012 23:00 17,0 C 86 % 1020,5 hPa 0,0 mm W 272 0,0 km/h (0 Bft)
01.07.2012 23:05 16,9 C 88 % 1020,6 hPa 0,0 mm W 272 0,0 km/h (0 Bft)
01.07.2012 23:10 16,8 C 88 % 1020,5 hPa 0,0 mm W 262 3,2 km/h (1 Bft)
01.07.2012 23:15 16,8 C 87 % 1020,6 hPa 0,0 mm NW 313 1,6 km/h (1 Bft)
01.07.2012 23:20 16,8 C 87 % 1020,6 hPa 0,0 mm N 360 4,8 km/h (1 Bft)
01.07.2012 23:25 16,8 C 87 % 1020,7 hPa 0,0 mm N 360 3,2 km/h (1 Bft)
01.07.2012 23:30 16,7 C 87 % 1020,6 hPa 0,0 mm N 360 1,6 km/h (1 Bft)
01.07.2012 23:35 16,7 C 87 % 1020,6 hPa 0,0 mm N 360 0,0 km/h (0 Bft)
01.07.2012 23:40 16,7 C 88 % 1020,6 hPa 0,0 mm S-SO 151 3,2 km/h (1 Bft)
01.07.2012 23:45 16,7 C 88 % 1020,7 hPa 0,0 mm O-SO 104 1,6 km/h (1 Bft)
01.07.2012 23:50 16,7 C 88 % 1020,7 hPa 0,0 mm O-SO 104 1,6 km/h (1 Bft)
01.07.2012 23:55 16,7 C 88 % 1020,6 hPa 0,0 mm O-SO 103 0,0 km/h (0 Bft)
_ Min-Zeit 23:25 13:10 01:40 - - - 00:15
Minimum _ 16,7 C 53 % 1007,7 hPa - - - 0,0 km/h (0 Bft)
_ Max-Zeit 15:05 00:35 22:15 18:30 - - 03:45
Maximum _ 29,0 C 90 % 1020,8 hPa 0,2 mm - - 33,8 km/h
W-SW (5 Bft)
Durchschnitt _ 22,5 C 74 % 1013,0 hPa #1,8 mm W - 10,0 km/h (2 Bft)